Content
SEND FEEDBACK

Daily
Averages
Monthly
Summary
United States of America

ASHEVILLE, NORTH CAROLINA


Home > North America > United States > North Carolina
Elevation: 2240 feet     Latitude: 35 36N     Longitude: 082 32W

WEATHER
 
SELECT A DAY
Number of Records: 226,157;   Date Range: 1/1/95 - 8/17/14
 
SHARE

PRINT THIS DATA

[ ← Previous Day ]
WEATHER ALMANAC - JULY 3, 2013
[ Next Day → ]
[ °C ]   °F
Weather ElementAverageHighLow
Temperature68.1 °F75.2 °F (12:37 pm)62.6 °F (6:24 pm)
Dewpoint65.9 °F70 °F (3:54 pm)61 °F (9:54 pm)
Humidity93 %100 % (6:05 am)78 % (12:37 pm)
Barometer30.21 in30.31 in (6:28 pm)30.10 in (1:54 am)
Wind Speed4.9 mph19.6 mph (5:49 pm)
Wind Gust26.5 mph (5:49 pm)
Weather ElementAverage
Visibility5.9 mi
Wind DirectionESE (116.5 °)

Weather ElementTotal
Precipitation11.52 in
Cooling Degree Days3.9 (Base 65)
Growing Degree Days18.9 (Base 50)
Averaged from 77 records on July 3, 2013
WEATHER CONDITIONS BREAKOUT
WIND DIRECTION BREAKOUT
WEATHER BY HOUR - JULY 3, 2013
[ °C ]   °F
Local TimeTemperatureDewpointHumidityBarometerVisibilityWind DirectionWind SpeedGust SpeedPrecipitationEventsConditions
12:35 AM69.8 °F66.2 °F88 %30.20 in10.0 miSE (140°)4.6 mph0.00 inRainLight Rain
12:45 AM69.8 °F66.2 °F88 %30.19 in10.0 miCalm0.00 inRainLight Rain
12:54 AM69.1 °F66.9 °F93 %30.12 in10.0 miSSE (160°)5.8 mph0.00 inRainLight Rain
1:03 AM69.8 °F66.2 °F88 %30.19 in10.0 miVariable3.5 mph0.00 inOvercast
1:26 AM69.8 °F66.2 °F88 %30.19 in10.0 miSE (130°)4.6 mph0.00 inOvercast
1:35 AM69.8 °F66.2 °F88 %30.19 in10.0 miSE (130°)4.6 mph0.00 inOvercast
1:54 AM69.1 °F66.9 °F93 %30.10 in10.0 miSE (140°)5.8 mph0.00 inRainLight Rain
2:19 AM68.0 °F66.2 °F94 %30.18 in10.0 miCalm0.00 inOvercast
2:36 AM68.0 °F66.2 °F94 %30.18 in10.0 miCalm0.00 inMostly Cloudy
2:54 AM69.1 °F66.9 °F93 %30.10 in7.0 miCalm0.00 inRainRain
3:01 AM68.0 °F66.2 °F94 %30.18 in2.5 miCalm0.03 inRainHeavy Rain
3:16 AM68.0 °F66.2 °F94 %30.18 in8.0 miSSE (160°)3.5 mph0.11 inRainLight Rain
3:54 AM68.0 °F66.9 °F96 %30.10 in10.0 miSSE (150°)3.5 mph0.14 inOvercast
4:18 AM68.0 °F66.2 °F94 %30.17 in10.0 miCalmMostly Cloudy
4:46 AM68.0 °F66.2 °F94 %30.18 in9.0 miSE (130°)3.5 mph0.00 inRainLight Rain
4:54 AM68.0 °F66.9 °F96 %30.11 in10.0 miCalm0.00 inRainLight Rain
5:17 AM68.0 °F66.2 °F94 %30.18 in10.0 miCalm0.00 inRainLight Rain
5:32 AM69.8 °F66.2 °F88 %30.18 in10.0 miCalm0.01 inRainLight Rain
5:42 AM68.0 °F66.2 °F94 %30.19 in1.5 miVariable4.6 mph0.05 inRainHeavy Rain
5:45 AM68.0 °F66.2 °F94 %30.19 in0.8 miWNW (300°)3.5 mph0.16 inRainHeavy Rain
5:54 AM68.0 °F66.9 °F96 %30.13 in0.8 miWSW (240°)3.5 mph0.44 inRainHeavy Rain
6:05 AM66.2 °F66.2 °F100 %30.20 in1.5 miSSW (210°)3.5 mph0.22 inRainLight Rain
6:08 AM66.2 °F66.2 °F100 %30.20 in4.0 miCalm0.22 inRainLight Rain
6:19 AM66.2 °F66.2 °F100 %30.20 in10.0 miCalm0.22 inOvercast
6:29 AM66.2 °F66.2 °F100 %30.20 in3.0 miESE (120°)3.5 mph0.26 inRainHeavy Rain
6:54 AM66.9 °F66.0 °F97 %30.14 in3.0 miCalm0.26 inOvercast
7:03 AM66.2 °F66.2 °F100 %30.20 in2.0 miEast (100°)3.5 mph0.05 inRainHeavy Rain
7:38 AM68.0 °F66.2 °F94 %30.22 in3.0 miSSE (160°)5.8 mph0.05 inOvercast
7:54 AM69.1 °F66.9 °F93 %30.14 in3.0 miSSE (150°)3.5 mph0.05 inRainLight Rain
8:54 AM69.1 °F66.9 °F93 %30.17 in3.0 miSE (140°)8.1 mph0.09 inRainLight Rain
9:01 AM69.8 °F66.2 °F88 %30.24 in6.0 miSE (140°)6.9 mph0.00 inRainLight Rain
9:43 AM69.8 °F68.0 °F94 %30.24 in3.0 miSSE (160°)6.9 mph0.06 inRainLight Rain
9:54 AM71.1 °F69.1 °F93 %30.17 in3.0 miSE (140°)8.1 mph0.06 inOvercast
10:02 AM71.6 °F69.8 °F94 %30.24 in4.0 miSE (140°)6.9 mphOvercast
10:54 AM72.0 °F68.0 °F87 %30.18 in4.0 miSSE (160°)8.1 mph0.00 inOvercast
11:54 AM72.0 °F69.1 °F91 %30.18 in3.0 miSE (130°)6.9 mph0.00 inOvercast
11:59 AM73.4 °F69.8 °F88 %30.25 in10.0 miSSE (150°)9.2 mphMostly Cloudy
12:37 PM75.2 °F68.0 °F78 %30.24 in10.0 miSSE (160°)10.4 mphMostly Cloudy
12:54 PM73.0 °F68.0 °F84 %30.17 in10.0 miSE (140°)8.1 mphOvercast
1:07 PM73.4 °F68.0 °F83 %30.24 in10.0 miESE (120°)9.2 mphOvercast
1:14 PM73.4 °F68.0 °F83 %30.24 in10.0 miESE (110°)9.2 mphOvercast
1:20 PM73.4 °F66.2 °F78 %30.24 in10.0 miESE (120°)8.1 mph16.1 mphOvercast
1:39 PM73.4 °F68.0 °F83 %30.23 in10.0 miSE (130°)9.2 mph0.00 inRainLight Rain
1:51 PM71.6 °F68.0 °F88 %30.24 in9.0 miSSE (150°)10.4 mph0.00 inRainLight Rain
1:54 PM71.1 °F68.0 °F90 %30.17 in4.0 miSE (140°)8.1 mph0.01 inRainHeavy Rain
1:59 PM71.6 °F68.0 °F88 %30.23 in1.8 miSSE (150°)5.8 mph0.06 inRainHeavy Rain
2:11 PM71.6 °F69.8 °F94 %30.23 in3.0 miSouth (170°)4.6 mph0.11 inRainLight Rain
2:27 PM73.4 °F69.8 °F88 %30.22 in10.0 miVariable6.9 mph0.12 inRainLight Rain
2:54 PM71.1 °F68.0 °F90 %30.16 in5.0 miSE (140°)8.1 mph17.3 mph0.12 inRainRain
3:04 PM71.6 °F68.0 °F88 %30.22 in8.0 miSSE (150°)9.2 mph0.02 inRainLight Rain
3:54 PM73.9 °F70.0 °F87 %30.14 in10.0 miCalm0.03 inMostly Cloudy
4:51 PM69.8 °F68.0 °F94 %30.23 in1.8 miSouth (170°)6.9 mph0.06 inRainHeavy Rain
4:54 PM70.0 °F68.0 °F93 %30.17 in1.5 miSouth (190°)9.2 mph0.08 inRainHeavy Rain
5:05 PM69.8 °F66.2 °F88 %30.23 in0.8 miWSW (240°)4.6 mph0.14 inRainHeavy Rain
5:12 PM68.0 °F66.2 °F94 %30.24 in1.5 miVariable3.5 mph0.29 inRainHeavy Rain
5:25 PM69.8 °F66.2 °F88 %30.24 in2.5 miNNW (340°)11.5 mph0.35 inRainRain
5:27 PM69.8 °F66.2 °F88 %30.24 in3.0 miNNW (340°)15.0 mph18.4 mph0.35 inRainRain
5:49 PM64.4 °F62.6 °F94 %30.27 in1.8 miNNW (330°)19.6 mph26.5 mph0.45 inRainHeavy Rain
5:54 PM64.0 °F63.0 °F96 %30.21 in1.0 miNNW (340°)18.4 mph0.61 inRainHeavy Rain
6:01 PM64.4 °F62.6 °F94 %30.26 in0.8 miNNW (340°)18.4 mph26.5 mph0.16 inRainHeavy Rain
6:24 PM62.6 °F62.6 °F100 %30.30 in1.0 miCalm0.74 inRainHeavy Rain
6:28 PM62.6 °F62.6 °F100 %30.31 in1.5 miCalm0.75 inRainHeavy Rain
6:36 PM62.6 °F62.6 °F100 %30.30 in0.8 miCalm0.91 inRainHeavy Rain
6:44 PM62.6 °F62.6 °F100 %30.29 in1.0 miNorth (360°)4.6 mph0.99 inRainHeavy Rain
6:49 PM62.6 °F62.6 °F100 %30.31 in2.0 miCalm1.01 inRainHeavy Rain
6:54 PM63.0 °F62.1 °F97 %30.25 in2.5 miVariable3.5 mph1.03 inRainHeavy Rain
7:04 PM62.6 °F62.6 °F100 %30.29 in1.8 miNorth (360°)4.6 mph0.07 inRainHeavy Rain
7:12 PM62.6 °F62.6 °F100 %30.30 in2.5 miNorth (10°)3.5 mph0.11 inRainHeavy Rain
7:17 PM62.6 °F62.6 °F100 %30.29 in3.0 miCalm0.15 inRainHeavy Rain
7:54 PM63.0 °F62.1 °F97 %30.23 in6.0 miNNW (330°)4.6 mph0.25 inRainRain
8:43 PM62.6 °F62.6 °F100 %30.27 in10.0 miNorth (350°)4.6 mph0.03 inRainLight Rain
8:54 PM63.0 °F62.1 °F97 %30.22 in10.0 miCalm0.03 inRainLight Rain
9:04 PM62.6 °F62.6 °F100 %30.28 in10.0 miCalm0.00 inRainLight Rain
9:54 PM63.0 °F61.0 °F93 %30.20 in10.0 miNorth (10°)3.5 mph0.01 inPartly Cloudy
10:54 PM63.0 °F62.1 °F97 %30.22 in10.0 miCalmMostly Cloudy
11:45 PM62.6 °F62.6 °F100 %30.29 in10.0 miCalmOvercast
11:54 PM63.0 °F62.1 °F97 %30.22 in10.0 miCalmOvercast
Hourly data recorded from KAVL, located miles away from Asheville, North Carolina







STORIES FROM OUR PARTNERS